Home   Weather   Bhubaneshwar   Past weeks

Flag for India Past Weather in Bhubaneshwar, Odisha, India — Yesterday and Last 2 Weeks

72 °F

Scattered clouds.

Feels Like: 72 °F
Forecast: 76 / 85 °F
Wind: No wind

Location: Nagpur Sonegaon

Current Time: Oct 26, 2016 at 7:49:04 AM

Latest Report: Oct 26, 2016 at 7:30 AM

Visibility: 2 mi

Pressure: 29.89 "Hg

Humidity: 78%

Dew Point: 64 °F

Location of BhubaneshwarLocation

Past Weather in Bhubaneshwar — Graph


Bhubaneshwar Temperature Yesterday

Maximum temperature yesterday: 91 °F (at 1:30 PM)
Minimum temperature yesterday: 66 °F (at 2:30 AM)
Average temperature yesterday: 78 °F

High & Low Weather Summary for the Past Weeks

High95 °F (Oct 11, 1:00 PM)100% (Oct 13, 5:30 AM)29.98 "Hg (Oct 13, 5:30 AM)
Low61 °F (Oct 13, 4:30 AM)24% (Oct 22, 2:30 PM)29.62 "Hg (Oct 23, 6:00 AM)
Average77 °F67%29.86 "Hg
* Reported Oct 11 7:00 AM — Oct 26 6:30 AM, Bhubaneshwar, Weather by CustomWeather, © 2016

Note: Actual official high and low records may vary slightly from our data, if they occured in-between our weather recording intervals... More about our weather records


Bhubaneshwar Weather History for the Previous 24 Hours

Scroll right to see more
Time TempWeatherWind HumidityBarometerVisibility
6:30 AM
Wed, Oct 26
68 °FHaze.No wind83%29.86 "Hg2 mi
5:30 AM66 °FPassing clouds.No wind88%29.83 "Hg2 mi
5:00 AM68 °FPassing clouds.No wind88%29.83 "Hg2 mi
4:30 AM68 °FHaze.No wind88%29.83 "Hg2 mi
4:00 AM68 °FHaze.No wind88%29.83 "Hg2 mi
3:30 AM70 °FHaze.No wind83%29.83 "Hg2 mi
3:00 AM70 °FPassing clouds.No wind83%29.83 "Hg2 mi
1:30 AM70 °FPassing clouds.No wind83%29.83 "Hg2 mi
12:30 AM72 °FPassing clouds.3 mph83%29.86 "Hg2 mi
12:00 AM72 °FPassing clouds.2 mph83%29.86 "Hg2 mi
11:30 PM
Tue, Oct 25
72 °FPassing clouds.3 mph83%29.86 "Hg2 mi
10:30 PM72 °FPassing clouds.No wind83%29.86 "Hg2 mi
10:00 PM73 °FPassing clouds.No wind78%29.86 "Hg2 mi
9:30 PM73 °FPassing clouds.No wind74%29.86 "Hg2 mi
9:00 PM73 °FPassing clouds.No wind74%29.86 "Hg2 mi
8:30 PM75 °FPassing clouds.No wind65%29.86 "Hg2 mi
8:00 PM75 °FPassing clouds.No wind65%29.86 "Hg2 mi
7:30 PM77 °FPassing clouds.No wind61%29.83 "Hg2 mi
7:00 PM79 °FPassing clouds.No wind58%29.83 "Hg2 mi
6:30 PM82 °FPassing clouds.No wind55%29.83 "Hg2 mi
6:00 PM82 °FScattered clouds.No wind51%29.83 "Hg2 mi
5:30 PM84 °FHaze.No wind45%29.80 "Hg3 mi
5:00 PM88 °FHaze.No wind40%29.80 "Hg3 mi
4:30 PM90 °FPassing clouds.3 mph33%29.80 "Hg4 mi
4:00 PM91 °FPassing clouds.5 mph30%29.80 "Hg4 mi
3:30 PM91 °FPassing clouds.3 mph30%29.80 "Hg4 mi
3:00 PM91 °FPassing clouds.No wind30%29.80 "Hg4 mi
2:30 PM91 °FPassing clouds.3 mph34%29.80 "Hg4 mi
2:00 PM91 °FPassing clouds.6 mph34%29.80 "Hg4 mi
1:30 PM91 °FClear.9 mph36%29.83 "Hg4 mi
1:00 PM90 °FClear.9 mph38%29.86 "Hg4 mi
12:30 PM88 °FClear.9 mph40%29.86 "Hg4 mi
11:30 AM88 °FClear.12 mph46%29.89 "Hg4 mi
11:00 AM86 °FHaze.9 mph46%29.92 "Hg3 mi
10:30 AM84 °FHaze.9 mph45%29.92 "Hg3 mi
10:00 AM82 °FHaze.12 mph45%29.92 "Hg3 mi
9:30 AM82 °FScattered clouds.7 mph45%29.92 "Hg3 mi
8:30 AM77 °FScattered clouds.5 mph57%29.92 "Hg2 mi
8:00 AM72 °FScattered clouds.5 mph69%29.89 "Hg2 mi
7:30 AM70 °FScattered clouds.5 mph73%29.89 "Hg1 mi
7:00 AM68 °FScattered clouds.7 mph78%29.89 "Hg1 mi
Weather by CustomWeather, © 2016

See weather overviewHow to use our weather pages